Home > Time Zones > World Clock > Weather > China > Sian > Past weeks

Flag for China Weather past 2 weeks in Sian, Shaanxi, China

Now
55 °F

Light rain. Mostly cloudy.


Feels Like: 54 °F
Forecast: 52 / 63 °F
Wind: 6 mph from West

Location: Xian/Xianyang

Current Time: Apr 19, 2015 at 1:34:56 AM

Latest Report: Apr 19, 2015 at 1:00 AM


Visibility: N/A

Pressure: 29.98 "Hg

Humidity: 82%

Dew point: 50 °F

Location of SianLocation

Historic Weather in Sian — Graph

°F

Sian temperature yesterday

Maximum temperature yesterday: 61 °F (at 2:00 PM)
Minimum temperature yesterday: 55 °F (at 2:00 AM)
Average temperature yesterday: 57 °F

Past Weeks' High & Low Weather Summary

 TemperatureHumidityPressure
High82 °F (Apr 15, 2:00 PM)100% (Apr 4, 1:00 AM)30.54 "Hg (Apr 4, 1:00 AM)
Low32 °F (Apr 14, 5:00 AM)14% (Apr 12, 12:00 PM)29.65 "Hg (Apr 17, 5:00 PM)
Average56 °F64%30.07 "Hg
* Reported Midnight between Apr 3 and Apr 4 — Midnight between Apr 18 and Apr 19, Sian, Weather by CustomWeather, © 2015

Note: Actual official high and low records may vary slightly from our data, if they occured in-between our weather recording intervals... More about our weather records

Advertising

Sian weather history for previous 24 hours

 ConditionsComfort  
Time TempWeatherWind HumidityBarometerVisibility
12:00 AM
Sun, Apr 19
55 °FOvercast.3 mph82%29.95 "HgN/A
11:00 PM
Sat, Apr 18
55 °FOvercast.3 mph82%29.95 "HgN/A
10:00 PM55 °FOvercast.3 mph82%29.95 "HgN/A
9:00 PM55 °FOvercast.1 mph82%29.92 "HgN/A
8:00 PM55 °FOvercast.3 mph82%29.92 "HgN/A
7:00 PM57 °FOvercast.3 mph77%29.89 "HgN/A
6:00 PM57 °FOvercast.3 mph82%29.89 "HgN/A
5:00 PM57 °FMostly cloudy.6 mph82%29.86 "HgN/A
4:00 PM57 °FLight rain. Overcast.6 mph88%29.86 "Hg5 mi
3:00 PM57 °FLight rain. Overcast.13 mph82%29.86 "Hg5 mi
2:00 PM61 °FPassing clouds.15 mph68%29.86 "Hg5 mi
1:00 PM59 °FMore clouds than sun.10 mph72%29.86 "Hg5 mi
12:00 PM57 °FLight rain. More clouds than sun.10 mph82%29.86 "Hg4 mi
11:00 AM57 °FLight rain. Fog.10 mph94%29.86 "Hg2 mi
10:00 AM57 °FLight rain. Fog.10 mph88%29.86 "Hg1 mi
9:00 AM57 °FFog.3 mph82%29.83 "Hg2 mi
8:00 AM57 °FLight rain. Fog.1 mph82%29.80 "Hg2 mi
7:00 AM59 °FLight rain. Fog.1 mph72%29.77 "Hg2 mi
6:00 AM57 °FLight rain. Fog.1 mph77%29.74 "Hg2 mi
5:00 AM59 °FLight rain. Fog.8 mph68%29.71 "Hg3 mi
4:00 AM57 °FFog.3 mph72%29.71 "Hg2 mi
3:00 AM55 °FFog.1 mph77%29.68 "Hg2 mi
2:00 AM55 °FFog.3 mph77%29.68 "Hg2 mi
1:00 AM57 °FFog.No wind72%29.71 "Hg3 mi
Weather by CustomWeather, © 2015

See weather overviewHow to use our weather pages